Effective Sunday, March 17, 2024, the National Weather Service National Data Buoy Center will discontinue its Dial-A-Buoy Interactive Voice Response system. For more information, see Service Change Notice 24-06 (PDF).

Station NMTA2 - 9468756 - Nome, Norton Sound, AK Image indicating link to RSS feed of recent meteorological observations for station NMTA2


Conditions at NMTA2 as of
(11:30 am AKST)
2030 GMT on 02/21/2024:
     

Click on the graph icon in the table below to see a time series plot of the last five days of that observation.

5-day plot - Wind Direction Wind Direction (WDIR): E ( 80 deg true )
5-day plot - Wind Speed Wind Speed (WSPD): 28.9 kts
5-day plot - Wind Gust Wind Gust (GST): 40.0 kts
5-day plot - Atmospheric Pressure Atmospheric Pressure (PRES):29.09 in
5-day plot - Air Temperature Air Temperature (ATMP): 21.2 °F
5-day plot - Water Temperature Water Temperature (WTMP): 32.2 °F
5-day plot - Ice Accretion Ice Accretion (ICE): 0.59 in per hour
5-day plot - Wind Chill Wind Chill (CHILL): 2.1 °F
5-day plot - Wind Speed at 10 Meters Wind Speed at 10 meters (WSPD10M): 31.1 kts
5-day plot - Wind Speed at 20 Meters Wind Speed at 20 meters (WSPD20M): 33.0 kts
5-day plot -  Wind Speed, Wind Gust and Atmospheric Pressure Combined plot of Wind Speed, Gust, and Air Pressure
NOS Water Level Observation Network Water Level
Previous observations
TIME
(AKST)
5-day plot - Wind Direction
WDIR
 
5-day plot - Wind Speed
WSPD
kts
5-day plot - Wind Gust
GST
kts
5-day plot - Wave Height
WVHT
ft
5-day plot - Dominant Wave Period
DPD
sec
5-day plot - Average Wave Period
APD
sec
5-day plot - Mean Wave Direction
MWD
 
5-day plot - Atmospheric Pressure
PRES
in
5-day plot - Pressure Tendency
PTDY
in
5-day plot - Air Temperature
ATMP
°F
5-day plot - Water Temperature
WTMP
°F
5-day plot - Dew Point
DEWP
°F
5-day plot - Salinity
SAL
psu
5-day plot - Visibility
VIS
nmi
5-day plot - Tide (above MLLW)
TIDE
ft
2024-02-21 11:24 am E 28.9 36.9----29.09- 21.2 32.2----
2024-02-21 11:18 am E 25.1 32.1----29.09- 21.4 32.2----
2024-02-21 11:12 am E 25.1 32.1----29.09- 21.4 32.2----
2024-02-21 11:06 am E 28.0 34.0----29.10- 21.4 32.2----
2024-02-21 11:00 am E 25.1 31.1----29.10-0.08 21.4 32.2----
2024-02-21 10:54 am E 26.0 32.1----29.10- 21.4 32.2----
2024-02-21 10:48 am E 27.0 31.1----29.10- 21.6 32.2----
2024-02-21 10:42 am E 27.0 31.1----29.10- 21.6 32.2----
2024-02-21 10:36 am E 25.1 29.9----29.10- 21.4 32.2----
2024-02-21 10:30 am E 26.0 31.1----29.10- 21.4 32.2----
2024-02-21 10:24 am E 26.0 32.1----29.10- 21.2 32.2----
2024-02-21 10:18 am E 27.0 32.1----29.10- 21.2 32.2----
2024-02-21 10:12 am E 25.1 31.1----29.11- 21.4 32.2----
2024-02-21 10:06 am E 28.0 33.0----29.11- 21.2 32.2----
2024-02-21 10:00 am E 28.0 33.0----29.11-0.09 21.2 32.2----
2024-02-21 09:54 am E 28.0 32.1----29.11- 21.2 32.2----
2024-02-21 09:48 am E 27.0 33.0----29.12- 21.0 32.2----
2024-02-21 09:42 am E 27.0 32.1----29.12- 20.8 32.2----
2024-02-21 09:36 am E 27.0 33.0----29.13- 20.7 32.2----
2024-02-21 09:30 am E 26.0 32.1----29.13- 20.7 32.2----
2024-02-21 09:24 am E 28.0 32.1----29.13- 20.5 32.2----
2024-02-21 09:18 am E 25.1 33.0----29.14- 20.5 32.2----
2024-02-21 09:12 am E 25.1 29.9----29.14- 20.3 32.2----
2024-02-21 09:06 am E 25.1 33.0----29.14- 19.9 32.2----
2024-02-21 09:00 am E 25.1 28.9----29.15-0.08 19.9 32.2----
2024-02-21 08:54 am E 21.0 26.0----29.15- 19.8 32.2----
2024-02-21 08:48 am E 25.1 29.9----29.16- 19.4 32.2----
2024-02-21 08:42 am E 24.1 27.0----29.16- 19.0 32.2----
2024-02-21 08:36 am E 24.1 28.9----29.16- 18.9 32.2----
2024-02-21 08:30 am E 26.0 31.1----29.16- 18.9 32.2----
2024-02-21 08:24 am E 25.1 29.9----29.16- 18.7 32.2----
2024-02-21 08:18 am E 24.1 32.1----29.16- 18.5 32.2----
2024-02-21 08:12 am E 28.0 33.0----29.17- 18.5 32.2----
2024-02-21 08:06 am E 26.0 32.1----29.17- 18.3 32.2----
2024-02-21 08:00 am E 28.0 32.1----29.18-0.06 18.1 32.2----
2024-02-21 07:54 am E 26.0 31.1----29.18- 18.1 32.2----
2024-02-21 07:48 am E 26.0 28.9----29.18- 18.1 32.2----
2024-02-21 07:42 am E 24.1 28.0----29.19- 18.0 32.2----
2024-02-21 07:36 am E 25.1 31.1----29.19- 18.0 32.2----
2024-02-21 07:30 am E 27.0 31.1----29.19- 18.0 32.2----
2024-02-21 07:24 am E 22.9 28.0----29.19- 18.0 32.2----
2024-02-21 07:18 am E 25.1 31.1----29.19- 18.0 32.2----
2024-02-21 07:12 am E 26.0 31.1----29.19- 18.0 32.2----
2024-02-21 07:06 am E 25.1 28.9----29.19- 18.1 32.2----
2024-02-21 07:00 am E 24.1 29.9----29.20-0.03 18.3 32.2----
2024-02-21 06:54 am E 24.1 28.0----29.21- 18.5 32.2----
2024-02-21 06:48 am E 22.0 27.0----29.21- 18.5 32.2----
2024-02-21 06:42 am E 22.9 27.0----29.21- 18.7 32.2----
2024-02-21 06:36 am E 22.9 27.0----29.21- 18.7 32.2----
2024-02-21 06:30 am E 21.0 28.0----29.21- 18.7 32.2----
2024-02-21 06:24 am E 22.0 26.0----29.20- 18.9 32.2----
2024-02-21 06:18 am E 22.9 26.0----29.21- 18.9 32.2----
2024-02-21 06:12 am E 21.0 24.1----29.22- 18.9 32.2----
2024-02-21 06:06 am E 20.0 24.1----29.22- 18.9 32.2----
2024-02-21 06:00 am E 21.0 24.1----29.23+0.00- 32.2----
2024-02-21 05:54 am E 20.0 22.0----29.23-- 32.2----
2024-02-21 05:48 amESE 20.0 24.1----29.23- 19.0 32.2----
2024-02-21 05:42 amESE 20.0 22.9----29.23- 19.0 32.2----
2024-02-21 05:36 am E 20.0 22.0----29.23- 19.0 32.2----
2024-02-21 05:30 amESE 18.1 22.0----29.24- 19.4 32.2----
2024-02-21 05:24 amESE 17.1 21.0----29.23- 19.6 32.2----
2024-02-21 05:18 amESE 19.0 22.9----29.24- 19.6 32.2----
2024-02-21 05:12 amESE 20.0 22.9----29.24- 19.6 32.2----
2024-02-21 05:06 amESE 15.9 18.1----29.24- 19.4 32.2----
2024-02-21 05:00 am SE 18.1 24.1----29.24+0.02 19.4 32.2----
2024-02-21 04:54 amESE 15.9 21.0----29.24- 19.0 32.2----
2024-02-21 04:48 amESE 15.0 18.1----29.24- 18.3 32.2----
2024-02-21 04:42 am E 15.9 19.0----29.24- 17.2 32.2----
2024-02-21 04:36 am E 15.9 18.1----29.24- 17.2 32.2----
2024-02-21 04:30 am E 17.1 19.0----29.23- 17.1 32.2----
2024-02-21 04:24 am E 17.1 19.0----29.24- 17.1 32.2----
2024-02-21 04:18 am E 17.1 19.0----29.24- 16.9 32.2----
2024-02-21 04:12 am E 15.9 17.1----29.23- 16.7 32.2----
2024-02-21 04:06 am E 15.0 17.1----29.23- 16.9 32.2----
2024-02-21 04:00 am E 15.0 17.1----29.23+0.03 17.2 32.2----
2024-02-21 03:54 am E 13.0 15.9----29.23- 18.0 32.2----
2024-02-21 03:48 am E 13.0 15.9----29.23-- 32.2----
2024-02-21 03:42 amESE 12.0 15.0----29.23- 18.5 32.2----
2024-02-21 03:36 am SE 12.0 15.9----29.23- 18.5 32.2----
2024-02-21 03:30 amESE 13.0 15.9----29.23- 18.5 32.2----
2024-02-21 03:24 amESE 12.0 15.9----29.23- 18.5 32.2----
2024-02-21 03:18 amESE 14.0 18.1----29.22- 18.7 32.2----
2024-02-21 03:12 amESE 14.0 15.9----29.22- 18.7 32.2----
2024-02-21 03:06 amESE 12.0 15.0----29.22- 18.9 32.2----
2024-02-21 03:00 amESE 12.0 17.1----29.22+0.02 18.9 32.2----
2024-02-21 02:54 am SE 12.0 18.1----29.23- 18.9 32.2----
2024-02-21 02:48 am SE 14.0 17.1----29.23- 18.7 32.2----
2024-02-21 02:42 amESE 13.0 17.1----29.23- 18.7 32.2----
2024-02-21 02:36 am SE 14.0 17.1----29.23- 18.9 32.2----
2024-02-21 02:30 am SE 14.0 19.0----29.23- 19.0 32.2----
2024-02-21 02:24 am SE 13.0 22.0----29.23- 19.4 32.2----
2024-02-21 02:18 am SE 15.9 21.0----29.22- 19.6 32.2----
2024-02-21 02:12 am SE 18.1 22.0----29.22- 19.6 32.2----
2024-02-21 02:06 am SE 18.1 20.0----29.22- 19.6 32.2----
2024-02-21 02:00 am SE 17.1 20.0----29.22+0.04 19.6 32.2----
2024-02-21 01:54 am SE 15.0 19.0----29.21- 19.6 32.2----
2024-02-21 01:48 am SE 14.0 20.0----29.21- 19.8 32.2----
2024-02-21 01:42 am SE 14.0 19.0----29.21- 19.9 32.2----
2024-02-21 01:36 am SE 17.1 20.0----29.21- 19.9 32.2----
2024-02-21 01:30 am SE 15.9 19.0----29.21- 20.1 32.2----
2024-02-21 01:24 am SE 15.9 18.1----29.21- 20.3 32.2----
2024-02-21 01:18 am SE 15.0 19.0----29.21- 20.3 32.2----
2024-02-21 01:12 am SE 14.0 18.1----29.21- 20.3 32.2----
2024-02-21 01:06 am SE 15.0 18.1----29.21- 20.3 32.2----
2024-02-21 01:00 am SE 15.0 19.0----29.21+0.04 20.3 32.2----
2024-02-21 12:54 am SE 15.0 19.0----29.21- 20.3 32.2----
2024-02-21 12:48 am SE 15.9 19.0----29.21-- 32.2----
2024-02-21 12:42 am SE 18.1 21.0----29.21- 20.3 32.2----
2024-02-21 12:36 am SE 17.1 21.0----29.21- 20.5 32.2----
2024-02-21 12:30 am SE 20.0 22.9----29.21- 20.5 32.2----
2024-02-21 12:24 am SE 18.1 22.0----29.21- 20.5 32.2----
2024-02-21 12:18 am SE 19.0 22.0----29.20- 20.3 32.2----
2024-02-21 12:12 am SE 15.9 22.9----29.20- 20.1 32.2----
2024-02-21 12:06 am SE 15.9 20.0----29.20- 19.9 32.2----
2024-02-21 12:00 am SE 15.9 21.0----29.20+0.04 19.9 32.2----
2024-02-20 11:54 pm SE 15.9 19.0----29.20- 19.9 32.2----
2024-02-20 11:48 pm SE 15.0 17.1----29.20- 19.9 32.2----
2024-02-20 11:42 pm SE 15.0 19.0----29.20- 19.9 32.2----
2024-02-20 11:36 pm SE 14.0 18.1----29.20- 20.1 32.2----
2024-02-20 11:30 pm SE 14.0 17.1----29.19- 19.9 32.2----
2024-02-20 11:24 pmESE 11.1 12.0----29.19- 19.9 32.2----
2024-02-20 11:18 pm SE 8.9 12.0----29.19- 19.8 32.2----
2024-02-20 11:12 pm SE 9.9 13.0----29.19- 19.9 32.2----
2024-02-20 11:06 pm SE 9.9 12.0----29.19- 19.9 32.2----
2024-02-20 11:00 pm SE 9.9 12.0----29.18+0.04 20.1 32.2----
2024-02-20 10:54 pm SE 9.9 12.0----29.18- 19.9 32.2----
2024-02-20 10:48 pm SE 9.9 12.0----29.18- 20.1 32.2----
2024-02-20 10:42 pmSSE 11.1 15.0----29.18- 20.1 32.2----
2024-02-20 10:36 pmSSE 12.0 15.0----29.18- 20.1 32.2----
2024-02-20 10:30 pmSSE 13.0 17.1----29.18- 19.9 32.2----
2024-02-20 10:24 pmSSE 11.1 14.0----29.18- 19.9 32.2----
2024-02-20 10:18 pmSSE 11.1 13.0----29.18- 19.9 32.2----
2024-02-20 10:12 pmSSE 12.0 18.1----29.18- 19.8 32.2----
2024-02-20 10:06 pmSSE 9.9 12.0----29.18- 19.2 32.2----
2024-02-20 10:00 pm SE 8.9 12.0----29.17+0.04- 32.2----
2024-02-20 09:54 pm SE 7.0 8.0----29.17-- 32.2----
2024-02-20 09:48 pmSSE 7.0 8.9----29.17-- 32.2----
2024-02-20 09:42 pmSSE 7.0 8.0----29.17- 17.6 32.2----
2024-02-20 09:36 pmSSE 7.0 8.0----29.17- 17.6 32.2----
2024-02-20 09:30 pm S 7.0 9.9----29.17- 17.4 32.2----
2024-02-20 09:24 pm S 8.9 11.1----29.17- 17.1 32.2----
2024-02-20 09:18 pm S 9.9 14.0----29.17-------
2024-02-20 09:12 pm S 11.1 15.0----29.16- 17.4 32.2----
2024-02-20 09:06 pm S 13.0 18.1----29.16- 17.8 32.2----
2024-02-20 09:00 pmSSE 15.9 20.0----29.16+0.04 18.5 32.2----
2024-02-20 08:54 pm S 14.0 18.1----29.15- 18.7 32.2----
2024-02-20 08:48 pmSSE 15.0 18.1----29.15- 18.9 32.2----
2024-02-20 08:42 pmSSE 14.0 18.1----29.15- 19.0 32.2----
2024-02-20 08:36 pmSSE 13.0 17.1----29.15- 19.0 32.2----
2024-02-20 08:30 pmSSE 14.0 15.9----29.15- 19.2 32.2----
2024-02-20 08:24 pmSSE 12.0 15.0----29.14- 19.0 32.2----
2024-02-20 08:18 pmSSE 12.0 15.0----29.14- 18.9 32.2----
2024-02-20 08:12 pm S 8.9 12.0----29.14- 18.9 32.2----
2024-02-20 08:06 pm S 9.9 13.0----29.14- 18.7 32.2----
2024-02-20 08:00 pmSSE 9.9 15.0----29.14+0.05 18.7 32.2----
2024-02-20 07:54 pmSSE 11.1 15.0----29.14- 18.7 32.2----
2024-02-20 07:48 pmSSE 13.0 15.0----29.14- 18.7 32.2----
2024-02-20 07:42 pmSSE 12.0 15.9----29.14- 18.7 32.2----
2024-02-20 07:36 pmSSE 13.0 18.1----29.14- 18.7 32.2----
2024-02-20 07:30 pmSSE 14.0 17.1----29.13- 18.9 32.2----
2024-02-20 07:24 pmSSE 11.1 13.0----29.13- 18.9 32.2----
2024-02-20 07:18 pm SE 8.9 12.0----29.13- 18.5 32.2----
2024-02-20 07:12 pmSSE 8.9 11.1----29.13- 18.5 32.2----
2024-02-20 07:06 pmSSE 8.9 11.1----29.13- 18.3 32.2----
2024-02-20 07:00 pmSSE 8.0 9.9----29.13+0.05 18.1 32.2----
2024-02-20 06:54 pmSSE 8.9 11.1----29.13- 18.1 32.2----
2024-02-20 06:48 pmSSE 8.0 11.1----29.13- 18.0 32.2----
2024-02-20 06:42 pmSSE 9.9 13.0----29.13- 17.8 32.2----
2024-02-20 06:36 pmSSE 9.9 12.0----29.13- 17.6 32.2----
2024-02-20 06:30 pmSSE 9.9 13.0----29.12- 17.4 32.2----
2024-02-20 06:24 pm S 12.0 17.1----29.12- 17.6 32.2----
2024-02-20 06:18 pm S 13.0 17.1----29.12- 17.4 32.2----
2024-02-20 06:12 pm S 14.0 17.1----29.12- 17.4 32.2----
2024-02-20 06:06 pm S 14.0 17.1----29.11- 17.6 32.2----
2024-02-20 06:00 pm S 13.0 15.9----29.11+0.03 18.0 32.2----
2024-02-20 05:54 pm S 12.0 17.1----29.11- 18.1 32.2----
2024-02-20 05:48 pm S 13.0 15.0----29.11- 18.1 32.2----
2024-02-20 05:42 pm S 11.1 15.0----29.10- 18.3 32.2----
2024-02-20 05:36 pm S 11.1 17.1----29.10- 18.7 32.2----
2024-02-20 05:30 pm S 12.0 17.1----29.10- 18.7 32.2----
2024-02-20 05:24 pm S 12.0 15.9----29.10- 18.7 32.2----
2024-02-20 05:18 pm S 12.0 15.0----29.10- 18.7 32.2----
2024-02-20 05:12 pm S 9.9 14.0----29.10- 18.9 32.2----
2024-02-20 05:06 pm S 12.0 15.9----29.10- 18.9 32.2----
2024-02-20 05:00 pm S 11.1 14.0----29.09+0.01 19.4 32.2----
2024-02-20 04:54 pm S 12.0 15.0----29.09- 20.3 32.2----
2024-02-20 04:48 pm S 11.1 14.0----29.08- 21.4 32.2----
2024-02-20 04:42 pm S 9.9 13.0----29.08- 22.8 32.2----
2024-02-20 04:36 pmSSE 11.1 13.0----29.08- 22.6 32.2----
2024-02-20 04:30 pm S 9.9 12.0----29.08- 22.6 32.2----
2024-02-20 04:24 pmSSE 9.9 12.0----29.08- 22.5 32.2----
2024-02-20 04:18 pm S 11.1 13.0----29.08- 22.6 32.2----
2024-02-20 04:12 pmSSE 8.9 13.0----29.08- 23.2 32.2----
2024-02-20 04:06 pmSSE 11.1 14.0----29.08- 23.5 32.2----
2024-02-20 04:00 pm SE 12.0 14.0----29.08+0.00 23.7 32.2----
2024-02-20 03:54 pm SE 12.0 15.0----29.08- 23.9 32.2----
2024-02-20 03:48 pm SE 11.1 13.0----29.08- 23.9 32.2----
2024-02-20 03:42 pm SE 11.1 15.0----29.08- 23.9 32.2----
2024-02-20 03:36 pm SE 12.0 14.0----29.08- 23.9 32.2----
2024-02-20 03:30 pm SE 9.9 13.0----29.08- 23.9 32.2----
2024-02-20 03:24 pm SE 11.1 13.0----29.08- 23.9 32.2----
2024-02-20 03:18 pm SE 11.1 13.0----29.08- 23.7 32.2----
2024-02-20 03:12 pm SE 9.9 13.0----29.08- 23.9 32.2----
2024-02-20 03:06 pm SE 9.9 13.0----29.08- 23.9 32.2----
2024-02-20 03:00 pm SE 9.9 12.0----29.08+0.00 24.1 32.2----
2024-02-20 02:54 pm SE 9.9 12.0----29.08- 23.9 32.2----
2024-02-20 02:48 pm SE 11.1 13.0----29.08- 24.1 32.2----
2024-02-20 02:42 pm SE 12.0 14.0----29.08- 24.1 32.2----
2024-02-20 02:36 pmESE 11.1 14.0----29.08- 24.1 32.2----
2024-02-20 02:30 pmESE 11.1 13.0----29.08- 24.3 32.2----
2024-02-20 02:24 pmESE 12.0 15.0----29.08- 24.3 32.2----
2024-02-20 02:18 pmESE 13.0 14.0----29.08- 24.3 32.2----
2024-02-20 02:12 pmESE 12.0 15.0----29.08- 24.3 32.2----
2024-02-20 02:06 pmESE 12.0 14.0----29.08- 24.3 32.2----
2024-02-20 02:00 pmESE 12.0 14.0----29.08+0.01 24.3 32.2----
2024-02-20 01:54 pm E 12.0 14.0----29.08- 24.3 32.2----
2024-02-20 01:48 pm E 12.0 14.0----29.08- 24.1 32.2----
2024-02-20 01:42 pm E 12.0 14.0----29.08- 23.9 32.2----
2024-02-20 01:36 pm E 12.0 13.0----29.08- 23.9 32.2----
2024-02-20 01:30 pm E 11.1 13.0----29.08- 23.7 32.2----
2024-02-20 01:24 pm E 11.1 13.0----29.07- 23.7 32.2----
2024-02-20 01:18 pm E 12.0 13.0----29.07-- 32.2----
2024-02-20 01:12 pm E 11.1 12.0----29.07- 23.5 32.2----
2024-02-20 01:06 pm E 11.1 12.0----29.07- 23.5 32.2----
2024-02-20 01:00 pm E 11.1 13.0----29.07+0.00 23.5 32.2----
2024-02-20 12:54 pm E 12.0 13.0----29.07- 23.5 32.2----
2024-02-20 12:48 pm E 11.1 12.0----29.08- 23.5 32.2----
2024-02-20 12:42 pm E 11.1 13.0----29.08- 23.4 32.2----
2024-02-20 12:36 pm E 9.9 13.0----29.08- 23.2 32.2----
2024-02-20 12:30 pm E 11.1 14.0----29.08- 23.2 32.2----
2024-02-20 12:24 pm E 11.1 13.0----29.08- 23.0 32.2----
2024-02-20 12:18 pm E 11.1 14.0----29.08- 23.0 32.2----
2024-02-20 12:12 pm E 12.0 13.0----29.08- 23.0 32.2----
2024-02-20 12:06 pm E 12.0 13.0----29.08- 23.0 32.2----
2024-02-20 12:00 pm E 11.1 13.0----29.08+0.01 22.8 32.2----
2024-02-20 11:54 am E 11.1 14.0----29.08- 22.6 32.2----